Location: Normandy Village
(37.8755°N, 122.2655°W)
Time: 08:02:54
(UTC+00:00)

Cosmos 1484 Rocket - Pass Details

Date: 22 September 2019
Orbit: 505 x 561 km, 97.4° (Epoch: 15 October)

Event Time Altitude Azimuth Distance (km) Brightness Sun altitude
Rises 12:58:44 0° 17° (NNE) 2,627 6.7 -12.2°
Reaches altitude 10° 13:00:53 10° 22° (NNE) 1,731 5.8 -11.8°
Maximum altitude 13:04:31 51° 100° (E) 639 3.6 -11.1°
Drops below altitude 10° 13:08:06 10° 177° (S) 1,710 5.3 -10.4°
Sets 13:10:13 0° 182° (S) 2,590 6.1 -10.0°
